ARIANE 5 R/B, 41383

Orbit data source: Space-Track

ARIANE 5 R/B, 41383 is space debris in HEO originally from a launch on Wed, 09 Mar 2016 UTC launched from the French Guiana (FRGUI). Debris objects in space refer to the collection of defunct objects orbiting the Earth. Examples of debris include non-operational satellites, rocket bodies, and fragments generated from explosions, collisions, or faulty payload assembly.

Loading next visibility...
Identifier
41383, 2016-014B
Orbit
HEO
Country
Flag of FRFR
Related business
Manufacturer
Airbus Safran
Mission
Spacecraft
Bus & Motor
ESC-A, Unknown motor
Mass
~5,000 kg wet, ~5,000 kg dry
Launch date (UTC)
2016-03-09 (10 years ago)
Launch vehicle
Unknown
Launch site
French Guiana (FRGUI)
Object type
Payload
Rocket body
Debris
Shape & HBR
Cyl + 1 Nozzle, 3.5 m
Radar Cross Section
41.627 m², Large (>1 m²)

Expand to show TLE details & history
Last TLE update: 18 hours ago

TLE from 18 hours ago
0 ARIANE 5 R/B
1 41383U 16014B   26127.02222479  .00054078 -15404-6  12809-2 0  9994
2 41383   0.6235 352.8917 6479901  44.3762 353.6384  3.41391889101385
Epoch: 2026-05-07T00:32Z
TLE epoch observation values (Epoch: 2026-05-07T00:32:00.221Z)
Latitude
0.08634°
Longitude
127.1236°
Altitude
740.627 km
Speed
9.517 km/s
True Right ascension
23h 59m 59s
True Declination
0° 05' 09"
Sunlit
Object was in daylight at epoch
Visualization orbit readout
Latitude
Unknown
Longitude
Unknown
Altitude
Unknown
Speed
Unknown
Apparent Right ascension
Unknown
Apparent Declination
Unknown
Sunlit
N/A
Visualization observer readout
Local Sidereal Time
02:25:25
Azimuth
Unknown
Elevation
Unknown
Doppler factor
Unknown
Orbital elements
Apogee altitude
24,334.182 km
Perigee altitude
182 km
Semi-major axis
18,636.228 km
Eccentricity
0.64799
Inclination
0.6235°
RAAN
352.8917°
Arg. of periapsis
44.3762°
True anomaly
323.02637°
Mean anomaly
353.6384°
Eccentric anomaly
342.43213°
Mean motion
0.85311 °/min
Orbital period
421.98 mins
BSTAR
0.0012809
Loading maneuver chart data...
Computing Atmospheric mass density...
Loading historical data...
Loading historical data...
Loading historical data...
Loading historical data...
Loading historical data...
Loading historical data...
Loading historical data...
Other satellites on launch #14 in the year 2016 (2016-03-09 UTC)

Documentation

Showing up to 5 results
|